Time,TemperatureF,DewpointF,PressureIn,WindDirection,WindDirectionDegrees,WindSpeedMPH,WindSpeedGustMPH,Humidity,HourlyPrecipIn,Conditions,Clouds,dailyrainin,SoftwareType,DateUTC
2013-04-10 00:03:00,80.0,-99.9,30.01,East,90,13.0,19.0,-999,-99.99,,,-99.99,,2013-04-10 04:03:00,
2013-04-10 00:13:00,80.0,-99.9,30.01,East,90,15.0,18.0,-999,-99.99,,,-99.99,,2013-04-10 04:13:00,
2013-04-10 00:23:00,79.0,-99.9,30.01,East,85,13.0,17.0,-999,-99.99,,,-99.99,,2013-04-10 04:23:00,
2013-04-10 00:33:00,79.0,-99.9,30.00,East,91,15.0,19.0,-999,-99.99,,,-99.99,,2013-04-10 04:33:00,
2013-04-10 00:43:00,79.0,-99.9,30.00,East,99,15.0,17.0,-999,-99.99,,,-99.99,,2013-04-10 04:43:00,
2013-04-10 00:53:00,79.0,-99.9,30.00,SE,125,9.0,14.0,-999,-99.99,,,-99.99,,2013-04-10 04:53:00,
2013-04-10 01:03:00,79.0,-99.9,30.00,ESE,110,8.0,11.0,-999,-99.99,,,-99.99,,2013-04-10 05:03:00,
2013-04-10 01:13:00,79.0,-99.9,29.99,ESE,105,12.0,19.0,-999,-99.99,,,-99.99,,2013-04-10 05:13:00,
2013-04-10 01:23:00,79.0,-99.9,29.98,ESE,122,7.0,13.0,-999,-99.99,,,-99.99,,2013-04-10 05:23:00,
2013-04-10 01:33:00,79.0,-99.9,29.98,SE,141,10.0,13.0,-999,-99.99,,,-99.99,,2013-04-10 05:33:00,
2013-04-10 01:43:00,78.0,-99.9,29.98,SE,124,6.0,9.0,-999,-99.99,,,-99.99,,2013-04-10 05:43:00,
2013-04-10 01:53:00,78.0,-99.9,29.98,East,88,6.0,9.0,-999,-99.99,,,-99.99,,2013-04-10 05:53:00,
2013-04-10 02:03:00,78.0,-99.9,29.97,East,92,9.0,12.0,-999,-99.99,,,-99.99,,2013-04-10 06:03:00,
2013-04-10 02:12:00,79.0,-99.9,29.96,East,90,11.0,15.0,-999,-99.99,,,-99.99,,2013-04-10 06:12:00,
2013-04-10 02:22:00,79.0,-99.9,29.96,ESE,106,12.0,17.0,-999,-99.99,,,-99.99,,2013-04-10 06:22:00,
2013-04-10 02:32:00,79.0,-99.9,29.96,East,81,13.0,15.0,-999,-99.99,,,-99.99,,2013-04-10 06:32:00,
2013-04-10 02:43:00,78.0,-99.9,29.96,East,84,12.0,14.0,-999,-99.99,,,-99.99,,2013-04-10 06:43:00,
2013-04-10 02:52:00,79.0,-99.9,29.95,East,85,13.0,15.0,-999,-99.99,,,-99.99,,2013-04-10 06:52:00,
2013-04-10 03:02:00,79.0,-99.9,29.95,East,92,12.0,15.0,-999,-99.99,,,-99.99,,2013-04-10 07:02:00,
2013-04-10 03:12:00,79.0,-99.9,29.95,ESE,109,11.0,17.0,-999,-99.99,,,-99.99,,2013-04-10 07:12:00,
2013-04-10 03:23:00,78.0,-99.9,29.95,ESE,120,9.0,11.0,-999,-99.99,,,-99.99,,2013-04-10 07:23:00,
2013-04-10 03:33:00,78.0,-99.9,29.95,ESE,109,9.0,13.0,-999,-99.99,,,-99.99,,2013-04-10 07:33:00,
2013-04-10 03:43:00,78.0,-99.9,29.95,East,101,10.0,11.0,-999,-99.99,,,-99.99,,2013-04-10 07:43:00,
2013-04-10 03:52:00,78.0,-99.9,29.95,SE,126,9.0,11.0,-999,-99.99,,,-99.99,,2013-04-10 07:52:00,
2013-04-10 04:02:00,78.0,-99.9,29.95,SE,130,7.0,13.0,-999,-99.99,,,-99.99,,2013-04-10 08:02:00,
2013-04-10 04:12:00,78.0,-99.9,29.95,SE,127,8.0,11.0,-999,-99.99,,,-99.99,,2013-04-10 08:12:00,
2013-04-10 04:22:00,78.0,-99.9,29.95,ESE,113,9.0,11.0,-999,-99.99,,,-99.99,,2013-04-10 08:22:00,
2013-04-10 04:32:00,78.0,-99.9,29.95,ESE,110,9.0,10.0,-999,-99.99,,,-99.99,,2013-04-10 08:32:00,
2013-04-10 04:43:00,78.0,-99.9,29.95,ESE,113,8.0,10.0,-999,-99.99,,,-99.99,,2013-04-10 08:43:00,
2013-04-10 04:52:00,78.0,-99.9,29.95,SE,137,9.0,11.0,-999,-99.99,,,-99.99,,2013-04-10 08:52:00,
2013-04-10 05:02:00,78.0,-99.9,29.95,SE,133,9.0,10.0,-999,-99.99,,,-99.99,,2013-04-10 09:02:00,
2013-04-10 05:12:00,78.0,-99.9,29.95,ESE,122,8.0,10.0,-999,-99.99,,,-99.99,,2013-04-10 09:12:00,
2013-04-10 05:23:00,77.0,-99.9,29.96,ESE,112,6.0,9.0,-999,-99.99,,,-99.99,,2013-04-10 09:23:00,
2013-04-10 05:33:00,78.0,-99.9,29.96,East,90,8.0,10.0,-999,-99.99,,,-99.99,,2013-04-10 09:33:00,
2013-04-10 05:43:00,78.0,-99.9,29.96,East,90,10.0,15.0,-999,-99.99,,,-99.99,,2013-04-10 09:43:00,
2013-04-10 05:53:00,78.0,-99.9,29.96,ESE,108,13.0,17.0,-999,-99.99,,,-99.99,,2013-04-10 09:53:00,
2013-04-10 06:03:00,78.0,-99.9,29.97,ESE,111,10.0,13.0,-999,-99.99,,,-99.99,,2013-04-10 10:03:00,
2013-04-10 06:13:00,78.0,-99.9,29.97,SE,126,9.0,11.0,-999,-99.99,,,-99.99,,2013-04-10 10:13:00,
2013-04-10 06:23:00,78.0,-99.9,29.98,ESE,120,8.0,11.0,-999,-99.99,,,-99.99,,2013-04-10 10:23:00,
2013-04-10 06:33:00,77.0,-99.9,29.98,ESE,117,9.0,11.0,-999,-99.99,,,-99.99,,2013-04-10 10:33:00,
2013-04-10 06:43:00,77.0,-99.9,29.98,ESE,106,9.0,11.0,-999,-99.99,,,-99.99,,2013-04-10 10:43:00,
2013-04-10 06:53:00,78.0,-99.9,29.98,SE,126,8.0,10.0,-999,-99.99,,,-99.99,,2013-04-10 10:53:00,
2013-04-10 07:03:00,77.0,-99.9,29.99,ESE,121,9.0,10.0,-999,-99.99,,,-99.99,,2013-04-10 11:03:00,
2013-04-10 07:12:00,77.0,-99.9,29.99,ESE,113,8.0,10.0,-999,-99.99,,,-99.99,,2013-04-10 11:12:00,
2013-04-10 07:22:00,77.0,-99.9,29.99,SE,144,6.0,9.0,-999,-99.99,,,-99.99,,2013-04-10 11:22:00,
2013-04-10 07:32:00,78.0,-99.9,30.00,SE,128,8.0,11.0,-999,-99.99,,,-99.99,,2013-04-10 11:32:00,
2013-04-10 07:42:00,78.0,-99.9,30.00,SE,130,8.0,10.0,-999,-99.99,,,-99.99,,2013-04-10 11:42:00,
2013-04-10 07:53:00,78.0,-99.9,30.01,SE,138,8.0,11.0,-999,-99.99,,,-99.99,,2013-04-10 11:53:00,
2013-04-10 08:03:00,78.0,-99.9,30.01,SE,134,8.0,9.0,-999,-99.99,,,-99.99,,2013-04-10 12:03:00,
2013-04-10 08:12:00,78.0,-99.9,30.01,SE,133,9.0,10.0,-999,-99.99,,,-99.99,,2013-04-10 12:12:00,
2013-04-10 08:23:00,78.0,-99.9,30.01,SE,131,9.0,10.0,-999,-99.99,,,-99.99,,2013-04-10 12:23:00,
2013-04-10 08:33:00,79.0,-99.9,30.01,ESE,122,8.0,11.0,-999,-99.99,,,-99.99,,2013-04-10 12:33:00,
2013-04-10 08:43:00,79.0,-99.9,30.01,East,90,13.0,18.0,-999,-99.99,,,-99.99,,2013-04-10 12:43:00,
2013-04-10 08:52:00,79.0,-99.9,30.02,East,95,9.0,14.0,-999,-99.99,,,-99.99,,2013-04-10 12:52:00,
2013-04-10 09:02:00,78.0,-99.9,30.02,East,93,13.0,15.0,-999,-99.99,,,-99.99,,2013-04-10 13:02:00,
2013-04-10 09:12:00,80.0,-99.9,30.02,ESE,107,10.0,14.0,-999,-99.99,,,-99.99,,2013-04-10 13:12:00,
2013-04-10 09:23:00,79.0,-99.9,30.03,ESE,123,9.0,12.0,-999,-99.99,,,-99.99,,2013-04-10 13:23:00,
2013-04-10 09:33:00,80.0,-99.9,30.03,SE,129,9.0,14.0,-999,-99.99,,,-99.99,,2013-04-10 13:33:00,
2013-04-10 09:43:00,80.0,-99.9,30.03,East,91,13.0,16.0,-999,-99.99,,,-99.99,,2013-04-10 13:43:00,
2013-04-10 09:53:00,80.0,-99.9,30.03,East,81,11.0,16.0,-999,-99.99,,,-99.99,,2013-04-10 13:53:00,
2013-04-10 10:02:00,80.0,-99.9,30.03,East,81,12.0,17.0,-999,-99.99,,,-99.99,,2013-04-10 14:02:00,
2013-04-10 10:13:00,80.0,-99.9,30.03,East,84,14.0,18.0,-999,-99.99,,,-99.99,,2013-04-10 14:13:00,
2013-04-10 10:22:00,80.0,-99.9,30.03,East,81,10.0,15.0,-999,-99.99,,,-99.99,,2013-04-10 14:22:00,
2013-04-10 10:33:00,80.0,-99.9,30.03,ENE,64,9.0,19.0,-999,-99.99,,,-99.99,,2013-04-10 14:33:00,
2013-04-10 10:42:00,80.0,-99.9,30.03,East,87,14.0,22.0,-999,-99.99,,,-99.99,,2013-04-10 14:42:00,
2013-04-10 10:52:00,81.0,-99.9,30.03,East,84,11.0,21.0,-999,-99.99,,,-99.99,,2013-04-10 14:52:00,
2013-04-10 11:03:00,80.0,-99.9,30.03,East,83,10.0,19.0,-999,-99.99,,,-99.99,,2013-04-10 15:03:00,
2013-04-10 11:12:00,81.0,-99.9,30.02,East,84,11.0,16.0,-999,-99.99,,,-99.99,,2013-04-10 15:12:00,
2013-04-10 11:23:00,81.0,-99.9,30.02,East,83,12.0,21.0,-999,-99.99,,,-99.99,,2013-04-10 15:23:00,
2013-04-10 11:33:00,81.0,-99.9,30.02,ENE,74,11.0,24.0,-999,-99.99,,,-99.99,,2013-04-10 15:33:00,
2013-04-10 11:43:00,81.0,-99.9,30.02,East,82,13.0,22.0,-999,-99.99,,,-99.99,,2013-04-10 15:43:00,
2013-04-10 11:53:00,81.0,-99.9,30.02,ENE,67,9.0,21.0,-999,-99.99,,,-99.99,,2013-04-10 15:53:00,
2013-04-10 12:03:00,82.0,-99.9,30.02,ENE,70,9.0,21.0,-999,-99.99,,,-99.99,,2013-04-10 16:03:00,
2013-04-10 12:13:00,82.0,-99.9,30.01,ENE,64,13.0,17.0,-999,-99.99,,,-99.99,,2013-04-10 16:13:00,
2013-04-10 12:23:00,82.0,-99.9,30.01,ENE,64,13.0,19.0,-999,-99.99,,,-99.99,,2013-04-10 16:23:00,
2013-04-10 12:33:00,82.0,-99.9,30.01,ENE,61,13.0,24.0,-999,-99.99,,,-99.99,,2013-04-10 16:33:00,
2013-04-10 12:43:00,81.0,-99.9,30.01,ENE,58,17.0,23.0,-999,-99.99,,,-99.99,,2013-04-10 16:43:00,
2013-04-10 12:53:00,82.0,-99.9,30.01,ENE,57,13.0,23.0,-999,-99.99,,,-99.99,,2013-04-10 16:53:00,
2013-04-10 13:03:00,81.0,-99.9,30.00,ENE,61,14.0,23.0,-999,-99.99,,,-99.99,,2013-04-10 17:03:00,
2013-04-10 13:13:00,82.0,-99.9,30.00,ENE,58,15.0,23.0,-999,-99.99,,,-99.99,,2013-04-10 17:13:00,
2013-04-10 13:23:00,82.0,-99.9,29.99,NE,54,14.0,20.0,-999,-99.99,,,-99.99,,2013-04-10 17:23:00,
2013-04-10 13:34:00,82.0,-99.9,29.99,ENE,62,12.0,22.0,-999,-99.99,,,-99.99,,2013-04-10 17:34:00,
2013-04-10 13:43:00,81.0,-99.9,29.98,NE,56,17.0,25.0,-999,-99.99,,,-99.99,,2013-04-10 17:43:00,
2013-04-10 13:53:00,81.0,-99.9,29.98,ENE,64,15.0,22.0,-999,-99.99,,,-99.99,,2013-04-10 17:53:00,
2013-04-10 14:03:00,82.0,-99.9,29.98,ENE,66,15.0,24.0,-999,-99.99,,,-99.99,,2013-04-10 18:03:00,
2013-04-10 14:12:00,82.0,-99.9,29.97,ENE,67,15.0,20.0,-999,-99.99,,,-99.99,,2013-04-10 18:12:00,
2013-04-10 14:23:00,81.0,-99.9,29.97,ENE,62,17.0,29.0,-999,-99.99,,,-99.99,,2013-04-10 18:23:00,
2013-04-10 14:33:00,82.0,-99.9,29.97,ENE,59,17.0,25.0,-999,-99.99,,,-99.99,,2013-04-10 18:33:00,
2013-04-10 14:43:00,82.0,-99.9,29.97,ENE,65,10.0,25.0,-999,-99.99,,,-99.99,,2013-04-10 18:43:00,
2013-04-10 14:53:00,82.0,-99.9,29.96,ENE,58,15.0,23.0,-999,-99.99,,,-99.99,,2013-04-10 18:53:00,
2013-04-10 15:03:00,82.0,-99.9,29.95,East,84,13.0,25.0,-999,-99.99,,,-99.99,,2013-04-10 19:03:00,
2013-04-10 15:13:00,81.0,-99.9,29.95,East,83,12.0,23.0,-999,-99.99,,,-99.99,,2013-04-10 19:13:00,
2013-04-10 15:22:00,81.0,-99.9,29.95,East,84,14.0,22.0,-999,-99.99,,,-99.99,,2013-04-10 19:22:00,
2013-04-10 15:33:00,81.0,-99.9,29.94,East,87,17.0,22.0,-999,-99.99,,,-99.99,,2013-04-10 19:33:00,
2013-04-10 15:42:00,81.0,-99.9,29.95,East,92,12.0,24.0,-999,-99.99,,,-99.99,,2013-04-10 19:42:00,
2013-04-10 15:53:00,81.0,-99.9,29.94,East,89,13.0,20.0,-999,-99.99,,,-99.99,,2013-04-10 19:53:00,
2013-04-10 16:03:00,81.0,-99.9,29.94,ENE,71,11.0,20.0,-999,-99.99,,,-99.99,,2013-04-10 20:03:00,
2013-04-10 16:12:00,81.0,-99.9,29.94,ENE,63,11.0,19.0,-999,-99.99,,,-99.99,,2013-04-10 20:12:00,
2013-04-10 16:23:00,82.0,-99.9,29.94,ENE,61,15.0,21.0,-999,-99.99,,,-99.99,,2013-04-10 20:23:00,
2013-04-10 16:33:00,81.0,-99.9,29.94,ENE,59,15.0,21.0,-999,-99.99,,,-99.99,,2013-04-10 20:33:00,
2013-04-10 16:43:00,81.0,-99.9,29.94,ENE,57,15.0,21.0,-999,-99.99,,,-99.99,,2013-04-10 20:43:00,
2013-04-10 16:53:00,82.0,-99.9,29.94,ENE,59,14.0,21.0,-999,-99.99,,,-99.99,,2013-04-10 20:53:00,
2013-04-10 17:03:00,82.0,-99.9,29.93,ENE,69,11.0,15.0,-999,-99.99,,,-99.99,,2013-04-10 21:03:00,
2013-04-10 17:13:00,81.0,-99.9,29.94,ENE,75,11.0,23.0,-999,-99.99,,,-99.99,,2013-04-10 21:13:00,
2013-04-10 17:22:00,81.0,-99.9,29.93,ENE,67,11.0,16.0,-999,-99.99,,,-99.99,,2013-04-10 21:22:00,
2013-04-10 17:33:00,81.0,-99.9,29.94,East,91,13.0,28.0,-999,-99.99,,,-99.99,,2013-04-10 21:33:00,
2013-04-10 17:43:00,81.0,-99.9,29.94,ENE,76,12.0,21.0,-999,-99.99,,,-99.99,,2013-04-10 21:43:00,
2013-04-10 17:53:00,81.0,-99.9,29.94,East,84,9.0,17.0,-999,-99.99,,,-99.99,,2013-04-10 21:53:00,
2013-04-10 18:03:00,81.0,-99.9,29.94,ENE,70,9.0,22.0,-999,-99.99,,,-99.99,,2013-04-10 22:03:00,
2013-04-10 18:13:00,80.0,-99.9,29.94,East,85,13.0,20.0,-999,-99.99,,,-99.99,,2013-04-10 22:13:00,
2013-04-10 18:23:00,80.0,-99.9,29.95,ENE,69,9.0,25.0,-999,-99.99,,,-99.99,,2013-04-10 22:23:00,
2013-04-10 18:34:00,80.0,-99.9,29.95,ENE,67,15.0,19.0,-999,-99.99,,,-99.99,,2013-04-10 22:34:00,
2013-04-10 18:43:00,80.0,-99.9,29.95,East,84,19.0,26.0,-999,-99.99,,,-99.99,,2013-04-10 22:43:00,
2013-04-10 18:53:00,80.0,-99.9,29.96,East,82,18.0,22.0,-999,-99.99,,,-99.99,,2013-04-10 22:53:00,
2013-04-10 19:03:00,80.0,-99.9,29.96,East,86,17.0,22.0,-999,-99.99,,,-99.99,,2013-04-10 23:03:00,
2013-04-10 19:12:00,80.0,-99.9,29.96,East,81,13.0,18.0,-999,-99.99,,,-99.99,,2013-04-10 23:12:00,
2013-04-10 19:22:00,79.0,-99.9,29.97,ESE,107,13.0,19.0,-999,-99.99,,,-99.99,,2013-04-10 23:22:00,
2013-04-10 19:33:00,79.0,-99.9,29.97,East,100,11.0,13.0,-999,-99.99,,,-99.99,,2013-04-10 23:33:00,
2013-04-10 19:43:00,79.0,-99.9,29.97,ESE,104,9.0,12.0,-999,-99.99,,,-99.99,,2013-04-10 23:43:00,
2013-04-10 19:53:00,79.0,-99.9,29.97,ENE,74,17.0,20.0,-999,-99.99,,,-99.99,,2013-04-10 23:53:00,
2013-04-10 20:02:00,79.0,-99.9,29.98,ENE,77,13.0,21.0,-999,-99.99,,,-99.99,,2013-04-11 00:02:00,
2013-04-10 20:13:00,79.0,-99.9,29.98,East,84,18.0,21.0,-999,-99.99,,,-99.99,,2013-04-11 00:13:00,
2013-04-10 20:23:00,80.0,-99.9,29.98,East,85,17.0,21.0,-999,-99.99,,,-99.99,,2013-04-11 00:23:00,
2013-04-10 20:32:00,80.0,-99.9,29.98,East,89,18.0,22.0,-999,-99.99,,,-99.99,,2013-04-11 00:32:00,
2013-04-10 20:43:00,79.0,-99.9,29.98,ENE,72,13.0,17.0,-999,-99.99,,,-99.99,,2013-04-11 00:43:00,
2013-04-10 20:53:00,79.0,-99.9,29.99,East,82,16.0,19.0,-999,-99.99,,,-99.99,,2013-04-11 00:53:00,
2013-04-10 21:02:00,80.0,-99.9,29.99,East,86,16.0,21.0,-999,-99.99,,,-99.99,,2013-04-11 01:02:00,
2013-04-10 21:12:00,80.0,-99.9,29.99,East,87,15.0,20.0,-999,-99.99,,,-99.99,,2013-04-11 01:12:00,
2013-04-10 21:22:00,80.0,-99.9,30.00,East,83,15.0,22.0,-999,-99.99,,,-99.99,,2013-04-11 01:22:00,
2013-04-10 21:33:00,80.0,-99.9,30.00,East,86,14.0,18.0,-999,-99.99,,,-99.99,,2013-04-11 01:33:00,
2013-04-10 21:42:00,80.0,-99.9,30.00,East,84,18.0,24.0,-999,-99.99,,,-99.99,,2013-04-11 01:42:00,
2013-04-10 21:52:00,80.0,-99.9,30.00,East,88,16.0,19.0,-999,-99.99,,,-99.99,,2013-04-11 01:52:00,
2013-04-10 22:03:00,80.0,-99.9,30.00,East,80,14.0,23.0,-999,-99.99,,,-99.99,,2013-04-11 02:03:00,
2013-04-10 22:13:00,80.0,-99.9,30.01,East,86,13.0,21.0,-999,-99.99,,,-99.99,,2013-04-11 02:13:00,
2013-04-10 22:22:00,80.0,-99.9,30.01,East,83,17.0,22.0,-999,-99.99,,,-99.99,,2013-04-11 02:22:00,
2013-04-10 22:32:00,81.0,-99.9,30.01,East,83,16.0,21.0,-999,-99.99,,,-99.99,,2013-04-11 02:32:00,
2013-04-10 22:42:00,81.0,-99.9,30.01,East,83,16.0,21.0,-999,-99.99,,,-99.99,,2013-04-11 02:42:00,
2013-04-10 22:53:00,80.0,-99.9,30.01,East,85,16.0,19.0,-999,-99.99,,,-99.99,,2013-04-11 02:53:00,
2013-04-10 23:02:00,80.0,-99.9,30.01,East,86,15.0,19.0,-999,-99.99,,,-99.99,,2013-04-11 03:02:00,
2013-04-10 23:12:00,80.0,-99.9,30.01,East,92,15.0,19.0,-999,-99.99,,,-99.99,,2013-04-11 03:12:00,
2013-04-10 23:22:00,79.0,-99.9,30.01,East,92,15.0,22.0,-999,-99.99,,,-99.99,,2013-04-11 03:22:00,
2013-04-10 23:33:00,79.0,-99.9,30.01,ESE,104,17.0,21.0,-999,-99.99,,,-99.99,,2013-04-11 03:33:00,
2013-04-10 23:43:00,79.0,-99.9,30.01,East,82,15.0,22.0,-999,-99.99,,,-99.99,,2013-04-11 03:43:00,
2013-04-10 23:54:00,79.0,-99.9,30.00,East,92,16.0,19.0,-999,-99.99,,,-99.99,,2013-04-11 03:54:00,